ONEWEB-0352, 49216

Orbit data source: Space-Track

ONEWEB-0352, 49216 is a payload satellite owned by One Web (NAA) (UK) in LEO that was launched on Tue, 14 Sep 2021 UTC via a SOYUZ-2-1B launch vehicle from the Tyuratam Missile And Space Complex (TTMTR). Payload-class satellites include a variety of spacecraft equipped with specific instruments for various scientific and technological missions. These include communications satellites like Starlink; space stations such as the ISS; scientific satellites like the Hubble; Earth observation satellites from companies like Planet Labs, Umbra, and HawkEye 360; GPS; miniature CubeSats for education and research; and military/defense satellites.

Loading next visibility...
Identifier
49216, 2021-083AG
Orbit
LEO
Country
Flag of UKUK
Related business
Manufacturer
One Web
Mission
Operational Commercial Communications
Bus & Motor
ARROW, Unknown motor
Mass
148 kg wet, ~140 kg dry
Launch date (UTC)
2021-09-14 (5 years ago)
Launch vehicle
SOYUZ-2-1B
Launch site
Tyuratam Missile And Space Complex (TTMTR)
Object type
Payload
Rocket body
Debris
Shape & HBR
Trap Box + 2 Pan, 6.7 m
Radar Cross Section
3.464 m², Large (>1 m²)

Expand to show TLE details & history
Last TLE update: 2 days ago

TLE from 2 days ago
0 ONEWEB-0352
1 49216U 21083AG  26171.45303889 -.00000055  00000-0 -18481-3 0  9990
2 49216  87.8956 319.5820 0001744 110.6854 249.4462 13.13471360231451
Epoch: 2026-06-20T10:52Z
TLE epoch observation values (Epoch: 2026-06-20T10:52:22.560Z)
Latitude
-0.00002°
Longitude
-112.17945°
Altitude
1,213.117 km
Speed
7.247 km/s
True Right ascension
21h 18m 19s
True Declination
0° 00' 00"
Sunlit
Object was in full shadow at epoch
Visualization orbit readout
Latitude
Unknown
Longitude
Unknown
Altitude
Unknown
Speed
Unknown
Apparent Right ascension
Unknown
Apparent Declination
Unknown
Sunlit
N/A
Visualization observer readout
Local Sidereal Time
02:14:03
Azimuth
Unknown
Elevation
Unknown
Doppler factor
Unknown
Orbital elements
Apogee altitude
1,208.198 km
Perigee altitude
1,205.552 km
Semi-major axis
7,585.012 km
Eccentricity
0.00017
Inclination
87.8956°
RAAN
319.582°
Arg. of periapsis
110.6854°
True anomaly
249.42749°
Mean anomaly
249.4462°
Eccentric anomaly
249.43684°
Mean motion
3.28555 °/min
Orbital period
109.57 mins
BSTAR
-0.00018481
Loading maneuver chart data...
Computing Atmospheric mass density...
Loading historical data...
Loading historical data...
Loading historical data...
Loading historical data...
Loading historical data...
Loading historical data...
Loading historical data...

Documentation

Showing up to 5 results
|